Regional Weather Roundup
Issued by NWS Raleigh/Durham, NC

Home | Current Version | Previous Version | Text Only | Print | Product List | Glossary On
Versions: 1 2 3 4 5 6 7 8 9 10 11 12 13 14 15 16 17 18 19 20 21 22 23 24 25 26 27 28 29 30 31 32 33 34 35 36 37 38 39 40 41 42 43 44 45 46 47 48 49 50
000
ASUS42 KRAH 282210
RWRRAH
NORTH CAROLINA WEATHER ROUNDUP
NATIONAL WEATHER SERVICE RALEIGH NC
500 PM EST WED JAN 28 2015

NOTE: "FAIR" INDICATES FEW OR NO CLOUDS BELOW 12,000 FEET WITH NO
SIGNIFICANT WEATHER AND/OR OBSTRUCTIONS TO VISIBILITY.

NCZ001-053-055-056-065-067-282300-
WESTERN NORTH CAROLINA

CITY           SKY/WX    TMP DP  RH WIND       PRES   REMARKS
ASHEVILLE      CLEAR     45  14  28 N9        30.20R
JEFFERSON      CLEAR     38  10  31 W7        30.16R WCI  33
MORGANTON      CLEAR     49  13  24 S5        30.25R
HICKORY        CLEAR     47  14  26 S5        30.21R
RUTHERFORDTON  CLEAR     49  13  23 CALM      30.22S
MOUNT AIRY     CLEAR     46  10  23 NW5       30.23R
BOONE          CLEAR     36  14  40 W9        30.17S WCI  29
$$

NCZ021-022-025-041-071-084-088-282300-
CENTRAL NORTH CAROLINA

CITY           SKY/WX    TMP DP  RH WIND       PRES   REMARKS
CHARLOTTE      CLEAR     47  14  26 NW6       30.25R
GREENSBORO     CLEAR     45  10  24 NW3       30.22R
WINSTON-SALEM  CLEAR     45  12  26 NW3       30.23R
RALEIGH-DURHAM PTCLDY    44   8  23 N3        30.25R
FORT BRAGG     CLEAR     46  10  23 N5        30.24R
FAYETTEVILLE   CLEAR     46   8  21 NW7       30.24R
BURLINGTON     CLEAR     44  10  25 NW7       30.23R
LAURINBURG     CLEAR     46  13  26 N7        30.26R
$$

NCZ011-015-027-028-043-044-047-080-103-282300-
NORTHEASTERN NORTH CAROLINA

CITY           SKY/WX    TMP DP  RH WIND       PRES   REMARKS
ROCKY MT-WILSO CLEAR     43   6  21 N7        30.25R
GREENVILLE     CLEAR     43  10  26 N6        30.26R
WASHINGTON     CLEAR     40  11  29 NW7       30.24R
ELIZABETH CITY CLEAR     39  10  30 NW12      30.21R WCI  32
MANTEO         CLEAR     37  12  35 NW8G17    30.20R WCI  31
CAPE HATTERAS  CLEAR     39  14  36 N8        30.19R WCI  33
$$

NCZ078-087-090-091-093-098-101-282300-
SOUTHEASTERN NORTH CAROLINA

CITY           SKY/WX    TMP DP  RH WIND       PRES   REMARKS
LUMBERTON      CLEAR     47  13  25 N6        30.25R
GOLDSBORO      CLEAR     43  11  27 N5        30.24R
KINSTON        CLEAR     43  10  26 N7        30.26R
KENANSVILLE    CLEAR     42  13  30 N7        30.26R
NEW BERN       CLEAR     43  10  26 N9        30.24R
CHERRY POINT   CLEAR     43  10  26 N13       30.23R
BEAUFORT       CLEAR     42  13  30 N8        30.22R
JACKSONVILLE   CLEAR     43  13  29 NW10      30.24R
WILMINGTON     CLEAR     44  14  29 NW15      30.25R
$$




USA.gov is the U.S. government's official web portal to all federal, state and local government web resources and services.